Location: Bühlhof
(48.7849°N, 8.6361°E)
Time: 22:55:31
(UTC+00:00)

Cosmos 2333 Rocket - Pass Details

Date: 19 January 2026
Orbit: 838 x 864 km, 70.8° (Epoch: 7 February)

Event Time Altitude Azimuth Distance (km) Brightness Sun altitude
Rises 19:43:52 0° 333° (NNW) 3,444 5.8 -35.9°
Reaches altitude 10° 19:46:25 10° 338° (NNW) 2,500 4.9 -36.3°
Enters shadow 19:47:41 17° 343° (NNW) 2,054 4.4 -36.5°
